📊 Raw Sensor Data
Showing records 34251 to 34275 of 84,836 total
| ID | Distance (ft) | Battery V | Battery A | Int Temp (°F) | Int Humid (%) | Ext Temp (°F) | Solar V | RSSI | SNR | Time Stamp |
|---|---|---|---|---|---|---|---|---|---|---|
| 50598 | 15.8 | 3.83 | 0 | 107 | 44 | 95 | 5.10 | -71 | 8 | 08/29/2025 04:15 PM |
| 50597 | 15.8 | 3.83 | 0 | 107 | 43 | 96 | 5.10 | -71 | 7 | 08/29/2025 04:00 PM |
| 50596 | 15.8 | 3.83 | 0 | 107 | 43 | 94 | 5.10 | -69 | 7 | 08/29/2025 03:45 PM |
| 50595 | 15.8 | 3.83 | 0 | 106 | 42 | 93 | 5.20 | -71 | 7 | 08/29/2025 03:30 PM |
| 50594 | 15.8 | 3.83 | 0 | 105 | 42 | 93 | 5.10 | -70 | 8 | 08/29/2025 03:15 PM |
| 50593 | 15.8 | 3.83 | 0 | 104 | 41 | 93 | 5.10 | -71 | 7 | 08/29/2025 03:00 PM |
| 50592 | 15.8 | 3.86 | 0 | 102 | 41 | 90 | 5.10 | -72 | 8 | 08/29/2025 02:45 PM |
| 50591 | 15.7 | 3.83 | 0 | 100 | 41 | 89 | 5.10 | -71 | 7 | 08/29/2025 02:30 PM |
| 50590 | 15.7 | 3.83 | 0 | 99 | 41 | 89 | 5.10 | -71 | 8 | 08/29/2025 02:15 PM |
| 50589 | 15.8 | 3.83 | 0 | 97 | 41 | 87 | 5.10 | -70 | 7 | 08/29/2025 02:00 PM |
| 50588 | 15.8 | 3.83 | 0 | 96 | 40 | 87 | 5.10 | -71 | 8 | 08/29/2025 01:45 PM |
| 50587 | 15.7 | 3.84 | 0 | 94 | 41 | 86 | 5.10 | -71 | 8 | 08/29/2025 01:30 PM |
| 50586 | 15.8 | 3.83 | 0 | 92 | 41 | 83 | 5.10 | -71 | 7 | 08/29/2025 01:15 PM |
| 50585 | 15.8 | 3.83 | 0 | 90 | 42 | 83 | 5.10 | -71 | 7 | 08/29/2025 01:00 PM |
| 50584 | 15.8 | 3.83 | 0 | 90 | 42 | 82 | 5.10 | -72 | 8 | 08/29/2025 12:45 PM |
| 50583 | 15.7 | 3.83 | 0 | 89 | 41 | 81 | 5.10 | -71 | 8 | 08/29/2025 12:30 PM |
| 50582 | 15.8 | 3.93 | 0 | 87 | 42 | 83 | 5.10 | -71 | 7 | 08/29/2025 12:15 PM |
| 50581 | 15.7 | 3.83 | 0 | 86 | 42 | 83 | 5.10 | -70 | 8 | 08/29/2025 12:00 PM |
| 50580 | 15.7 | 4.04 | 0 | 84 | 42 | 80 | 5.10 | -71 | 8 | 08/29/2025 11:45 AM |
| 50579 | 15.8 | 3.83 | 0 | 83 | 42 | 80 | 5.10 | -71 | 7 | 08/29/2025 11:30 AM |
| 50578 | 15.8 | 3.84 | 0 | 82 | 41 | 83 | 5.10 | -71 | 8 | 08/29/2025 11:00 AM |
| 50577 | 15.8 | 3.84 | 0 | 80 | 41 | 79 | 5.10 | -72 | 7 | 08/29/2025 10:45 AM |
| 50576 | 15.8 | 3.83 | 0 | 78 | 41 | 80 | 5.10 | -71 | 7 | 08/29/2025 10:30 AM |
| 50575 | 15.7 | 3.83 | 0 | 77 | 41 | 79 | 5.10 | -70 | 8 | 08/29/2025 10:15 AM |
| 50574 | 15.8 | 3.96 | 0 | 75 | 41 | 78 | 5.10 | -71 | 8 | 08/29/2025 10:00 AM |